Location: Cactus School
(34.5700°N, 118.0931°W)
Time: 03:29:51
(UTC-07:00)

Courier 1B - Pass Details

Date: 27 April 2024
Orbit: 962 x 1208 km, 28.3° (Epoch: 23 May)

Event Time Altitude Azimuth Distance (km) Brightness Sun altitude
Exits shadow 02:19:58 14° 110° (ESE) 2,720 9.8 -36.9°
Drops below altitude 10° 02:20:45 10° 108° (ESE) 2,973 10.1 -36.8°
Sets 02:23:30 0° 104° (ESE) 3,894 10.8 -36.5°
